This demonstration page uses our WeatherBlox Daily Observations layout. Learn more.

Left ArrowRight Arrow

47.50024, -111.30081

Hourly Observations for June 25, 2020

Temp ( °F °C ) Dew Point ( °F °C ) Humidity (%) Winds ( mph kmh ) Pressure ( in mb ) Visibility ( mi km ) Precip ( " mm )
12:53 am 00:53 Cloudy with Light Rain 58 14.4 54 12.2 87 87 SW 6 9 29.87 1011 10 16 0.00 0.00
1:53 am 01:53 Cloudy with Light Rain 57 13.9 55 12.8 93 93 SSE 9 15 29.84 1011 7 11 0.04 1.02
2:53 am 02:53 Clear 57 13.9 53 11.7 87 87 SSW 12 19 29.83 1010 10 16 0.00 0.00
3:53 am 03:53 Clear 56 13.3 51 10.6 84 84 W 6 9 29.84 1011 10 16 0.00 0.00
4:53 am 04:53 Clear 55 12.8 53 11.7 93 93 WNW 9 15 29.87 1012 10 16 0.00 0.00
5:53 am 05:53 Sunny 53 11.7 50 10 89 89 NW 12 19 29.91 1013 10 16 0.00 0.00
6:01 am 06:01 Partly Cloudy 53 11.7 50 10 89 89 NW 13 20 29.94 1014 10 16 0.00 0.00
6:25 am 06:25 Cloudy 54 12.2 51 10.6 90 90 NW 7 11 29.95 1014 10 16 0.00 0.00
6:38 am 06:38 Partly Cloudy 54 12.2 51 10.6 90 90 NW 5 7 29.95 1014 10 16 0.00 0.00
6:53 am 06:53 Mostly Sunny 55 12.8 51 10.6 87 87 W 5 7 29.95 1014 10 16 0.00 0.00
7:42 am 07:42 Mostly Cloudy 55 12.8 51 10.6 87 87 SW 7 11 29.98 1015 10 16 0.00 0.00
7:53 am 07:53 Mostly Cloudy 57 13.9 52 11.1 83 83 SW 6 9 30.01 1016 10 16 0.00 0.00
8:48 am 08:48 Cloudy 57 14 52 11 82 82 WSW 5 7 29.99 1016 10 16 0.00 0.00
8:53 am 08:53 Cloudy 57 13.9 53 11.7 87 87 W 8 13 30.04 1017 10 16 0.00 0.00
9:09 am 09:09 Cloudy 59 15 53 11.7 81 81 WSW 5 7 29.98 1015 10 16 0.00 0.00
9:53 am 09:53 Cloudy 61 16.1 53 11.7 75 75 W 3 6 30.04 1017 10 16 0.00 0.00
10:06 am 10:06 Cloudy 61 16.1 53 11.7 75 75 Calm 29.97 1015 10 16 0.00 0.00
10:25 am 10:25 Mostly Cloudy 60 15.6 53 11.7 78 78 SW 5 7 29.97 1015 10 16 0.00 0.00
10:33 am 10:33 Mostly Cloudy 61 16.1 53 11.7 75 75 SSE 5 7 29.96 1015 10 16 0.00 0.00
10:53 am 10:53 Mostly Cloudy 63 17.2 54 12.2 73 73 WSW 6 9 30.03 1017 10 16 0.00 0.00
11:20 am 11:20 Partly Cloudy 65 18.3 53 11.7 66 66 Calm 29.93 1014 10 16 0.00 0.00
11:29 am 11:29 Mostly Cloudy 64 17.8 53 11.7 68 68 VRB 5 7 29.94 1014 10 16 0.00 0.00
11:53 am 11:53 Cloudy 66 18.9 53 11.7 63 63 VRB 5 7 30.02 1017 10 16 0.00 0.00
12:53 pm 12:53 Mostly Cloudy 67 19.4 52 11.1 59 59 Calm 30.01 1016 10 16 0.00 0.00
1:53 pm 13:53 Mostly Cloudy 74 23.3 53 11.7 48 48 VRB 3 6 30.00 1016 10 16 0.00 0.00
2:53 pm 14:53 Partly Cloudy 72 22.2 51 10.6 48 48 E 5 7 29.99 1016 10 16 0.00 0.00
3:53 pm 15:53 Sunny 76 24.4 49 9.4 39 39 VRB 3 6 29.98 1015 10 16 0.00 0.00
4:53 pm 16:53 Sunny 77 25 49 9.4 37 37 NE 7 11 29.96 1015 10 16 0.00 0.00
5:53 pm 17:53 Sunny 75 23.9 51 10.6 43 43 SE 7 11 29.96 1015 10 16 0.00 0.00
6:53 pm 18:53 Sunny 75 23.9 50 10 41 41 ESE 8 13 29.94 1014 10 16 0.00 0.00
7:53 pm 19:53 Sunny 73 22.8 50 10 44 44 ESE 10 17 29.93 1014 10 16 0.00 0.00
8:53 pm 20:53 Sunny 70 21.1 51 10.6 51 51 E 7 11 29.94 1014 10 16 0.00 0.00
9:53 pm 21:53 Clear 64 17.8 51 10.6 63 63 E 6 9 29.95 1014 10 16 0.00 0.00
10:53 pm 22:53 Clear 64 17.8 51 10.6 63 63 ESE 9 15 29.97 1015 10 16 0.00 0.00
11:53 pm 23:53 Clear 61 16.1 50 10 67 67 E 6 9 29.97 1015 10 16 0.00 0.00

Powered by AerisWeather